Regional Weather Roundup
Issued by NWS Charleston, SC

Current Version | Previous Version | Graphics & Text | Print | Product List | Glossary On
Versions: 1 2 3 4 5 6 7 8 9 10 11 12 13 14 15 16 17 18 19 20 21 22 23 24 25 26 27 28 29 30 31 32 33 34 35 36 37 38 39 40 41 42 43 44 45 46 47 48 49 50
000
ASUS42 KCHS 210625
RWRCHS

REGIONAL WEATHER ROUNDUP
NATIONAL WEATHER SERVICE CHARLESTON SC
200 AM EDT SUN SEP 21 2014

NOTE: "FAIR" INDICATES FEW OR NO CLOUDS BELOW 12,000 FEET WITH NO
SIGNIFICANT WEATHER AND/OR OBSTRUCTIONS TO VISIBILITY.

NOT ALL STATIONS ARE QUALITY CONTROLLED BY THE NATIONAL
WEATHER SERVICE. USE DATA WITH CAUTION...ESPECIALLY
DEWPOINT OBSERVATIONS.

SCZ027-030-031-034>040-042>050-210700-
...SOUTH CAROLINA...

CITY           SKY/WX    TMP DP  RH WIND       PRES   REMARKS
N CHARLESTON   CLOUDY    71  64  78 N8        29.90F
6HR MIN TEMP:  71; 6HR MAX TEMP:  75;

WATERFRONT PRK   N/A     73 N/A N/A N10G16      N/A
FORT JOHNSON   NOT AVBL
MOUNT PLEASANT FAIR      72  64  78 N6        29.89F
JOHNS ISLAND   CLEAR     70  70 100 NW7       29.90F
PINOPOLIS        N/A     75  66  73 N17       29.84F
MONCKS CORNER    N/A     73  68  83 N8        29.90F
SUMMERVILLE    NOT AVBL
BEAUFORT MCAS  MOCLDY    70  63  78 S7        29.93S
6HR MIN TEMP:  70; 6HR MAX TEMP:  73;

BEAUFORT ARPT  FAIR      70  64  83 NW6       29.92S
HILTON HEAD IS MOCLDY    72  64  78 NW6       29.94S
GEORGETOWN     NOT AVBL
WALTERBORO     MOCLDY    68  68 100 NW5       29.93F
ORANGEBURG     MOCLDY    67  60  78 N6        29.95F
6HR MIN TEMP:  67; 6HR MAX TEMP:  73;

BARNWELL       FAIR      64  61  88 NW7       29.97F
AIKEN          FAIR      63  63 100 CALM      30.02F
MANNING        FAIR      70  64  83 N3        29.92F
KINGSTREE      NOT AVBL
COLUMBIA       MOCLDY    69  59  70 NW5       29.97F
6HR MIN TEMP:  66; 6HR MAX TEMP:  76;

SUMTER         MOCLDY    68  60  75 N9        29.94F
6HR MIN TEMP:  68; 6HR MAX TEMP:  73;

FLORENCE       MOCLDY    70  61  73 N9        29.92F
6HR MIN TEMP:  70; 6HR MAX TEMP:  74;

MYRTLE BEACH   CLOUDY    70  64  83 NW9       29.87S
N MYRTLE BEACH LGT RAIN  70  67  90 NW7       29.86F
6HR MIN TEMP:  70; 6HR MAX TEMP:  74; 6HR PCP:  0.03;


$$

GAZ063-065-086>088-099>101-113>116-118-119-134-136>141-150-210700-
...GEORGIA...

CITY           SKY/WX    TMP DP  RH WIND       PRES   REMARKS
SAVANNAH ARPT  PTCLDY    68  62  81 N5        29.94F
6HR MIN TEMP:  67; 6HR MAX TEMP:  73;

HUNTER AAF     MOCLDY    69  63  82 NW5       29.92F
6HR MIN TEMP:  69; 6HR MAX TEMP:  73;

FORT STEWART   CLEAR     66  62  85 NW5       29.94F
6HR MIN TEMP:  66; 6HR MAX TEMP:  73;

STATESBORO     NOT AVBL
SYLVANIA       PTCLDY    68  66  95 CALM      29.96F
CLAXTON        FAIR     N/A N/A N/A CALM      29.96F
THOMSON        CLEAR     63  63 100 CALM      30.05F
AUGUSTA-BUSH   PTCLDY    61  60  97 CALM      29.98F
6HR MIN TEMP:  61; 6HR MAX TEMP:  71;

AUGUSTA-DANIEL PTCLDY    69  61  75 NW7       30.00F
SWAINSBORO     FAIR      63  63 100 CALM      29.99F
VIDALIA        CLEAR     66  63  88 NW5       29.98F
ALMA           CLEAR     65  63  93 N3        29.97F
6HR MIN TEMP:  63; 6HR MAX TEMP:  74;

WAYCROSS       NOT AVBL
JESUP          FAIR      70  64  83 N3        29.95F
BRUNSWICK      CLEAR     68  63  83 CALM      29.95S
SAINT SIMONS   CLEAR     68  64  87 NW6       29.94F
6HR MIN TEMP:  68; 6HR MAX TEMP:  72;


$$

SCZ027-028-034-036>038-045-046-048>050-GAZ119-141-210700-
...LAKE AND SUPPLEMENTAL COASTAL OBSERVATIONS...

STATION/POSITION TIME  TEMP    WIND        PRES    WAVE   SWELL
                       AIR SEA DIR/SP/G            HT/PER HT/PER/DIR
                 (UTC) (F)     (DEG/KT/KT) (MB)    (FT/S) (FT/S/D)
UPR LAKE MARION  NOT AVBL
WINYAH BAY       0600   69     330/  8     1011.0S
LAKE MURRAY      0500   68     340/  3/  7 1014.9F
ACE BASIN NERRS  0600   69     340/  3     1013.0S
FORT PULASKI     0600   69     310/  6/  9 1013.7F
SAPELO ISLAND    0600   69     340/  6     1014.0S

$$

ANZ835-935-AMZ111-154-330-350-352-354-374-450-454-472-210700-
...C-MAN AND BUOY OBSERVATIONS...

STATION/POSITION TIME  TEMP    WIND        PRES    WAVE   SWELL
                       AIR SEA DIR/SP/G            HT/PER HT/PER/DIR
                 (UTC) (F)     (DEG/KT/KT) (MB)    (FT/S) (FT/S/D)
FOLLY BEACH CMAN 0600   72     330/  7/ 11 1012.6F
BUOY 41004       0600   76 81  340/ 19/ 25 1009.6F   7/ 7   3/10
BUOY 41008       0600   76 83  360/ 17/ 19 1012.9F   6/ 8   3/ 90/ 8
5E ST. MARYS GA  0600      83                N/A     5/ 7
FRYING PAN BUOY  NOT AVBL
BUOY 41025       0600   75     110/ 23/ 31 1008.8F   9/10   5/ 60/10
CAPE LOOKOUT NC  0600   73      30/ 18/ 20 1008.1F
BUOY 41002       0550   81 82  200/ 23/ 29 1010.0F   9/ 7
BUOY 41010       0600   80 84  280/ 16/ 19 1011.2S   4/ 5   2/ 20/ 8
BUOY 41012       NOT AVBL
ST AUGUSTINE FL  0600   70     320/  7/  8 1014.1F
CAPERS NEARSHORE 0500   73     360/ 17/ 21   N/A
FRIPP NEARSHORE  NOT AVBL


$$



USA.gov is the U.S. government's official web portal to all federal, state and local government web resources and services.